SCOUT B R/B, 2206

Orbit data source: Space-Track

SCOUT B R/B, 2206 is space debris in LEO originally from a launch on Fri, 10 Jun 1966 UTC launched from the Wallops Island (WLPIS). Debris objects in space refer to the collection of defunct objects orbiting the Earth. Examples of debris include non-operational satellites, rocket bodies, and fragments generated from explosions, collisions, or faulty payload assembly.

Loading next visibility...
Identifier
2206, 1966-052B
Orbit
LEO
Country
Flag of USUS
Related business
Manufacturer
UTC
Mission
Spacecraft
Bus & Motor
FW4, Unknown motor
Mass
47 kg wet, 47 kg dry
Launch date (UTC)
1966-06-10 (59 years ago)
Launch vehicle
Unknown
Launch site
Wallops Island (WLPIS)
Object type
Payload
Rocket body
Debris
Shape & HBR
Unknown
Radar Cross Section
Medium (>0.1 m² and <1 m²)

Expand to show TLE details & history
Last TLE update: 13 hours ago

TLE from 13 hours ago
0 SCOUT B R/B
1 02206U 66052B   25300.92727392  .00000576  00000-0  88055-3 0  9997
2 02206  40.8553 255.7567 2210642  26.2181 343.5254 10.14459907179194
Epoch: 2025-10-27T22:15Z
TLE epoch observation values (Epoch: 2025-10-27T22:15:16.466Z)
Latitude
Longitude
-114.584°
Altitude
775.32 km
Speed
8.201 km/s
True Right ascension
17h 03m 01s
True Declination
0° 00' 00"
Sunlit
Object was in daylight at epoch
Visualization orbit readout
Latitude
Unknown
Longitude
Unknown
Altitude
Unknown
Speed
Unknown
Apparent Right ascension
Unknown
Apparent Declination
Unknown
Sunlit
N/A
Visualization observer readout
Local Sidereal Time
06:14:53
Azimuth
Unknown
Elevation
Unknown
Doppler factor
Unknown
Orbital elements
Apogee altitude
4,630.703 km
Perigee altitude
644.573 km
Semi-major axis
9,015.775 km
Eccentricity
0.22106
Inclination
40.8553°
RAAN
255.7567°
Arg. of periapsis
26.2181°
True anomaly
333.85002°
Mean anomaly
343.5254°
Eccentric anomaly
338.98273°
Mean motion
2.53535 °/min
Orbital period
141.99 mins
BSTAR
0.00088055
Loading maneuver chart data...
Computing Atmospheric mass density...
Loading historical data...
Loading historical data...
Loading historical data...
Loading historical data...
Loading historical data...
Loading historical data...
Loading historical data...
Other satellites on launch #52 in the year 1966 (1966-06-10 UTC)

Documentation

Showing up to 5 results
|